ONEWEB-0260 (48978 NORAD) Tracking and Keplerian Element Data

This shows tracking and keplerian element data for the satellite.

Feedback or suggestion? Click here.




ElementValue
Catalog48978
NameONEWEB-0260
Epoch Orbit1293
Epoch Day262.25001157
Epoch Year2021
RAAN213.4404
Inclination87.8242
Eccentricity0.0007268
Argument of Perigee359.5074
Mean Anonmoly27.2999
Mean Motion13.59766646
Decay Rate1.5E-07
L11 48978U 21060M 21262.25001157 .00000015 00000-0 00000+0 0 9994
L22 48978 87.8242 213.4404 0007268 359.5074 27.2999 13.59766646 12939

Live tracking and technical data element details for ONEWEB-0260 (NORAD 48978). ONEWEB-0260 can be tracked NOW for your location showing map with azimuth and elevation plus other details from your city location.

Track the satellite on the map from your city or location and see movement details for azimuth, elevation, latitude, longitude, range, height, and movement on the map or in text.







IsCatalogInMostPopularTable: catalog: 48978, numindb: 17
Update: records affected: 1



GetName: 48978 ONEWEB-0260

Hit Count: updated at: Fri, 24 Sep 2021 17:41:51 GMT